owner,sensor,date,latitude,longitude,vertical_datum,wind_speed,wind_to_direction,wind_speed_of_gust,qcFlag 
TCOON,ioos:station:TCOON:057:1,2017-11-01T00:00:00Z,28.4460,-96.3961,0.0,10.6,171.0,12.4,'11111222,11111222,11111222' 
TCOON,ioos:station:TCOON:057:1,2017-11-01T00:06:00Z,28.4460,-96.3961,0.0,10.6,165.0,12.3,'11111222,11111222,11111222' 
TCOON,ioos:station:TCOON:057:1,2017-11-01T00:12:00Z,28.4460,-96.3961,0.0,10.3,161.0,13.0,'11111222,11111222,11111222' 
TCOON,ioos:station:TCOON:057:1,2017-11-01T00:18:00Z,28.4460,-96.3961,0.0,10.3,161.0,13.0,'1111122,1111122,1111122' 
TCOON,ioos:station:TCOON:057:1,2017-11-01T00:24:00Z,28.4460,-96.3961,0.0,9.5,153.0,11.2,'11111222,11111222,11111222' 
TCOON,ioos:station:TCOON:057:1,2017-11-01T00:30:00Z,28.4460,-96.3961,0.0,8.8,151.0,10.5,'11111222,11111222,11111222' 
TCOON,ioos:station:TCOON:057:1,2017-11-01T00:36:00Z,28.4460,-96.3961,0.0,7.4,148.0,8.9,'11111222,11111222,11111222' 
TCOON,ioos:station:TCOON:057:1,2017-11-01T00:42:00Z,28.4460,-96.3961,0.0,6.4,148.0,8.6,'11111222,11111222,11111222' 
TCOON,ioos:station:TCOON:057:1,2017-11-01T00:48:00Z,28.4460,-96.3961,0.0,11.4,162.0,13.2,'11111222,11111222,11111222' 
TCOON,ioos:station:TCOON:057:1,2017-11-01T00:54:00Z,28.4460,-96.3961,0.0,9.4,154.0,11.4,'11111222,11111222,11111222' 
TCOON,ioos:station:TCOON:057:1,2017-11-01T01:00:00Z,28.4460,-96.3961,0.0,10.2,159.0,11.6,'11111222,11111222,11111222' 
TCOON,ioos:station:TCOON:057:1,2017-11-01T01:06:00Z,28.4460,-96.3961,0.0,7.8,150.0,10.4,'11111222,11111222,11111222' 
TCOON,ioos:station:TCOON:057:1,2017-11-01T01:12:00Z,28.4460,-96.3961,0.0,8.1,146.0,9.3,'11111222,11111222,11111222' 
TCOON,ioos:station:TCOON:057:1,2017-11-01T01:18:00Z,28.4460,-96.3961,0.0,8.1,146.0,9.3,'1111122,1111122,1111122' 
TCOON,ioos:station:TCOON:057:1,2017-11-01T01:24:00Z,28.4460,-96.3961,0.0,5.0,144.0,6.8,'11111222,11111222,11111222' 
TCOON,ioos:station:TCOON:057:1,2017-11-01T01:30:00Z,28.4460,-96.3961,0.0,4.6,144.0,5.6,'11111222,11111222,11111222' 
TCOON,ioos:station:TCOON:057:1,2017-11-01T01:36:00Z,28.4460,-96.3961,0.0,7.9,159.0,8.9,'11111222,11111222,11111222' 
TCOON,ioos:station:TCOON:057:1,2017-11-01T01:42:00Z,28.4460,-96.3961,0.0,7.6,157.0,9.7,'11111222,11111222,11111222' 
TCOON,ioos:station:TCOON:057:1,2017-11-01T01:48:00Z,28.4460,-96.3961,0.0,7.5,142.0,10.5,'11111222,11111222,11111222' 
TCOON,ioos:station:TCOON:057:1,2017-11-01T01:54:00Z,28.4460,-96.3961,0.0,6.0,143.0,7.7,'11111222,11111222,11111222' 
TCOON,ioos:station:TCOON:057:1,2017-11-01T02:00:00Z,28.4460,-96.3961,0.0,8.6,156.0,10.0,'11111222,11111222,11111222' 
TCOON,ioos:station:TCOON:057:1,2017-11-01T02:06:00Z,28.4460,-96.3961,0.0,8.4,157.0,10.2,'11111222,11111222,11111222' 
TCOON,ioos:station:TCOON:057:1,2017-11-01T02:12:00Z,28.4460,-96.3961,0.0,8.9,159.0,10.2,'11111222,11111222,11111222' 
TCOON,ioos:station:TCOON:057:1,2017-11-01T02:18:00Z,28.4460,-96.3961,0.0,8.9,159.0,10.2,'1111122,1111122,1111122' 
TCOON,ioos:station:TCOON:057:1,2017-11-01T02:24:00Z,28.4460,-96.3961,0.0,9.7,147.0,11.5,'11111222,11111222,11111222' 
TCOON,ioos:station:TCOON:057:1,2017-11-01T02:30:00Z,28.4460,-96.3961,0.0,9.5,145.0,10.9,'11111222,11111222,11111222' 
TCOON,ioos:station:TCOON:057:1,2017-11-01T02:36:00Z,28.4460,-96.3961,0.0,8.1,146.0,11.3,'11111222,11111222,11111222' 
TCOON,ioos:station:TCOON:057:1,2017-11-01T02:42:00Z,28.4460,-96.3961,0.0,8.4,148.0,9.2,'11111222,11111222,11111222' 
TCOON,ioos:station:TCOON:057:1,2017-11-01T02:48:00Z,28.4460,-96.3961,0.0,7.7,143.0,9.3,'11111222,11111222,11111222' 
TCOON,ioos:station:TCOON:057:1,2017-11-01T02:54:00Z,28.4460,-96.3961,0.0,8.2,147.0,9.4,'11111222,11111222,11111222' 
TCOON,ioos:station:TCOON:057:1,2017-11-01T03:00:00Z,28.4460,-96.3961,0.0,8.1,149.0,9.7,'11111222,11111222,11111222' 
TCOON,ioos:station:TCOON:057:1,2017-11-01T03:06:00Z,28.4460,-96.3961,0.0,8.0,150.0,9.9,'11111222,11111222,11111222' 
TCOON,ioos:station:TCOON:057:1,2017-11-01T03:12:00Z,28.4460,-96.3961,0.0,7.5,139.0,9.6,'11111222,11111222,11111222' 
TCOON,ioos:station:TCOON:057:1,2017-11-01T03:18:00Z,28.4460,-96.3961,0.0,7.1,142.0,8.1,'11111222,11111222,11111222' 
TCOON,ioos:station:TCOON:057:1,2017-11-01T03:24:00Z,28.4460,-96.3961,0.0,7.1,142.0,8.1,'1111122,1111122,1111122' 
TCOON,ioos:station:TCOON:057:1,2017-11-01T03:30:00Z,28.4460,-96.3961,0.0,8.1,150.0,9.7,'11111222,11111222,11111222' 
TCOON,ioos:station:TCOON:057:1,2017-11-01T03:36:00Z,28.4460,-96.3961,0.0,8.2,153.0,9.1,'11111222,11111222,11111222' 
TCOON,ioos:station:TCOON:057:1,2017-11-01T03:42:00Z,28.4460,-96.3961,0.0,9.3,160.0,11.5,'11111222,11111222,11111222' 
TCOON,ioos:station:TCOON:057:1,2017-11-01T03:48:00Z,28.4460,-96.3961,0.0,10.2,161.0,12.1,'11111222,11111222,11111222' 
TCOON,ioos:station:TCOON:057:1,2017-11-01T03:54:00Z,28.4460,-96.3961,0.0,10.4,159.0,12.7,'11111222,11111222,11111222' 
TCOON,ioos:station:TCOON:057:1,2017-11-01T04:00:00Z,28.4460,-96.3961,0.0,8.9,143.0,11.5,'11111222,11111222,11111222' 
TCOON,ioos:station:TCOON:057:1,2017-11-01T04:06:00Z,28.4460,-96.3961,0.0,7.1,141.0,10.0,'11111222,11111222,11111222' 
TCOON,ioos:station:TCOON:057:1,2017-11-01T04:12:00Z,28.4460,-96.3961,0.0,6.7,142.0,7.7,'11111222,11111222,11111222' 
TCOON,ioos:station:TCOON:057:1,2017-11-01T04:18:00Z,28.4460,-96.3961,0.0,6.7,142.0,7.7,'1111122,1111122,1111122' 
TCOON,ioos:station:TCOON:057:1,2017-11-01T04:24:00Z,28.4460,-96.3961,0.0,7.3,144.0,8.6,'11111222,11111222,11111222' 
TCOON,ioos:station:TCOON:057:1,2017-11-01T04:30:00Z,28.4460,-96.3961,0.0,7.1,142.0,8.3,'11111222,11111222,11111222' 
TCOON,ioos:station:TCOON:057:1,2017-11-01T04:36:00Z,28.4460,-96.3961,0.0,7.1,142.0,8.8,'11111222,11111222,11111222' 
TCOON,ioos:station:TCOON:057:1,2017-11-01T04:42:00Z,28.4460,-96.3961,0.0,7.5,138.0,8.4,'11111222,11111222,11111222' 
TCOON,ioos:station:TCOON:057:1,2017-11-01T04:48:00Z,28.4460,-96.3961,0.0,7.2,142.0,8.7,'11111222,11111222,11111222' 
TCOON,ioos:station:TCOON:057:1,2017-11-01T04:54:00Z,28.4460,-96.3961,0.0,7.5,147.0,8.2,'11111222,11111222,11111222' 
TCOON,ioos:station:TCOON:057:1,2017-11-01T05:00:00Z,28.4460,-96.3961,0.0,8.1,151.0,9.1,'11111222,11111222,11111222' 
TCOON,ioos:station:TCOON:057:1,2017-11-01T05:06:00Z,28.4460,-96.3961,0.0,8.6,155.0,9.8,'11111222,11111222,11111222' 
TCOON,ioos:station:TCOON:057:1,2017-11-01T05:12:00Z,28.4460,-96.3961,0.0,9.5,159.0,10.6,'11111222,11111222,11111222' 
TCOON,ioos:station:TCOON:057:1,2017-11-01T05:18:00Z,28.4460,-96.3961,0.0,9.5,159.0,10.6,'1111122,1111122,1111122' 
TCOON,ioos:station:TCOON:057:1,2017-11-01T05:24:00Z,28.4460,-96.3961,0.0,9.7,162.0,11.1,'11111222,11111222,11111222' 
TCOON,ioos:station:TCOON:057:1,2017-11-01T05:30:00Z,28.4460,-96.3961,0.0,9.5,166.0,11.3,'11111222,11111222,11111222' 
TCOON,ioos:station:TCOON:057:1,2017-11-01T05:36:00Z,28.4460,-96.3961,0.0,9.3,168.0,11.0,'11111222,11111222,11111222' 
TCOON,ioos:station:TCOON:057:1,2017-11-01T05:42:00Z,28.4460,-96.3961,0.0,9.1,164.0,10.4,'11111222,11111222,11111222' 
TCOON,ioos:station:TCOON:057:1,2017-11-01T05:48:00Z,28.4460,-96.3961,0.0,8.4,163.0,10.1,'11111222,11111222,11111222' 
TCOON,ioos:station:TCOON:057:1,2017-11-01T05:54:00Z,28.4460,-96.3961,0.0,7.3,166.0,9.3,'11111222,11111222,11111222' 
TCOON,ioos:station:TCOON:057:1,2017-11-01T06:00:00Z,28.4460,-96.3961,0.0,8.1,167.0,9.7,'11111222,11111222,11111222' 
TCOON,ioos:station:TCOON:057:1,2017-11-01T06:06:00Z,28.4460,-96.3961,0.0,8.0,165.0,9.4,'11111222,11111222,11111222' 
TCOON,ioos:station:TCOON:057:1,2017-11-01T06:12:00Z,28.4460,-96.3961,0.0,8.6,161.0,9.3,'11111222,11111222,11111222' 
TCOON,ioos:station:TCOON:057:1,2017-11-01T06:18:00Z,28.4460,-96.3961,0.0,8.6,161.0,9.3,'1111122,1111122,1111122' 
TCOON,ioos:station:TCOON:057:1,2017-11-01T06:24:00Z,28.4460,-96.3961,0.0,8.3,166.0,9.5,'11111222,11111222,11111222' 
TCOON,ioos:station:TCOON:057:1,2017-11-01T06:30:00Z,28.4460,-96.3961,0.0,7.6,165.0,8.8,'11111222,11111222,11111222' 
TCOON,ioos:station:TCOON:057:1,2017-11-01T06:36:00Z,28.4460,-96.3961,0.0,9.1,166.0,10.8,'11111222,11111222,11111222' 
TCOON,ioos:station:TCOON:057:1,2017-11-01T06:42:00Z,28.4460,-96.3961,0.0,8.7,167.0,10.5,'11111222,11111222,11111222' 
TCOON,ioos:station:TCOON:057:1,2017-11-01T06:48:00Z,28.4460,-96.3961,0.0,8.7,166.0,10.5,'11111222,11111222,11111222' 
TCOON,ioos:station:TCOON:057:1,2017-11-01T06:54:00Z,28.4460,-96.3961,0.0,8.9,164.0,9.9,'11111222,11111222,11111222' 
TCOON,ioos:station:TCOON:057:1,2017-11-01T07:00:00Z,28.4460,-96.3961,0.0,9.5,167.0,10.8,'11111222,11111222,11111222' 
TCOON,ioos:station:TCOON:057:1,2017-11-01T07:06:00Z,28.4460,-96.3961,0.0,9.2,167.0,11.2,'11111222,11111222,11111222' 
TCOON,ioos:station:TCOON:057:1,2017-11-01T07:12:00Z,28.4460,-96.3961,0.0,8.6,170.0,10.8,'11111222,11111222,11111222' 
TCOON,ioos:station:TCOON:057:1,2017-11-01T07:18:00Z,28.4460,-96.3961,0.0,8.6,170.0,10.8,'1111122,1111122,1111122' 
TCOON,ioos:station:TCOON:057:1,2017-11-01T07:24:00Z,28.4460,-96.3961,0.0,7.7,171.0,8.7,'11111222,11111222,11111222' 
TCOON,ioos:station:TCOON:057:1,2017-11-01T07:30:00Z,28.4460,-96.3961,0.0,7.6,174.0,8.6,'11111222,11111222,11111222' 
TCOON,ioos:station:TCOON:057:1,2017-11-01T07:36:00Z,28.4460,-96.3961,0.0,7.2,175.0,8.6,'11111222,11111222,11111222' 
TCOON,ioos:station:TCOON:057:1,2017-11-01T07:42:00Z,28.4460,-96.3961,0.0,7.3,171.0,8.4,'11111222,11111222,11111222' 
TCOON,ioos:station:TCOON:057:1,2017-11-01T07:48:00Z,28.4460,-96.3961,0.0,7.1,175.0,8.1,'11111222,11111222,11111222' 
TCOON,ioos:station:TCOON:057:1,2017-11-01T07:54:00Z,28.4460,-96.3961,0.0,6.6,180.0,7.7,'11111222,11111222,11111222' 
TCOON,ioos:station:TCOON:057:1,2017-11-01T08:00:00Z,28.4460,-96.3961,0.0,6.9,180.0,8.1,'11111222,11111222,11111222' 
TCOON,ioos:station:TCOON:057:1,2017-11-01T08:06:00Z,28.4460,-96.3961,0.0,5.6,189.0,7.0,'11111222,11111222,11111222' 
TCOON,ioos:station:TCOON:057:1,2017-11-01T08:12:00Z,28.4460,-96.3961,0.0,5.4,192.0,6.1,'11111222,11111222,11111222' 
TCOON,ioos:station:TCOON:057:1,2017-11-01T08:18:00Z,28.4460,-96.3961,0.0,5.4,192.0,6.1,'1111122,1111122,1111122' 
TCOON,ioos:station:TCOON:057:1,2017-11-01T08:24:00Z,28.4460,-96.3961,0.0,4.4,194.0,5.6,'11111222,11111222,11111222' 
TCOON,ioos:station:TCOON:057:1,2017-11-01T08:30:00Z,28.4460,-96.3961,0.0,4.7,197.0,5.5,'11111222,11111222,11111222' 
TCOON,ioos:station:TCOON:057:1,2017-11-01T08:36:00Z,28.4460,-96.3961,0.0,4.6,197.0,5.3,'11111222,11111222,11111222' 
TCOON,ioos:station:TCOON:057:1,2017-11-01T08:42:00Z,28.4460,-96.3961,0.0,4.4,206.0,5.4,'11111222,11111222,11111222' 
TCOON,ioos:station:TCOON:057:1,2017-11-01T08:48:00Z,28.4460,-96.3961,0.0,4.2,212.0,5.5,'11111222,11111222,11111222' 
TCOON,ioos:station:TCOON:057:1,2017-11-01T08:54:00Z,28.4460,-96.3961,0.0,4.2,213.0,5.6,'11111222,11111222,11111222' 
TCOON,ioos:station:TCOON:057:1,2017-11-01T09:00:00Z,28.4460,-96.3961,0.0,4.5,216.0,5.5,'11111222,11111222,11111222' 
TCOON,ioos:station:TCOON:057:1,2017-11-01T09:06:00Z,28.4460,-96.3961,0.0,4.1,223.0,5.8,'11111222,11111222,11111222' 
TCOON,ioos:station:TCOON:057:1,2017-11-01T09:12:00Z,28.4460,-96.3961,0.0,4.5,230.0,5.0,'11111222,11111222,11111222' 
TCOON,ioos:station:TCOON:057:1,2017-11-01T09:18:00Z,28.4460,-96.3961,0.0,4.5,230.0,5.0,'1111122,1111122,1111122' 
TCOON,ioos:station:TCOON:057:1,2017-11-01T09:24:00Z,28.4460,-96.3961,0.0,3.9,244.0,4.4,'11111222,11111222,11111222' 
TCOON,ioos:station:TCOON:057:1,2017-11-01T09:30:00Z,28.4460,-96.3961,0.0,3.7,250.0,4.8,'11111222,11111222,11111222' 
TCOON,ioos:station:TCOON:057:1,2017-11-01T09:36:00Z,28.4460,-96.3961,0.0,4.4,231.0,5.2,'11111222,11111222,11111222' 
TCOON,ioos:station:TCOON:057:1,2017-11-01T09:42:00Z,28.4460,-96.3961,0.0,4.6,235.0,5.6,'11111222,11111222,11111222' 
TCOON,ioos:station:TCOON:057:1,2017-11-01T09:48:00Z,28.4460,-96.3961,0.0,4.7,247.0,5.5,'11111222,11111222,11111222' 
TCOON,ioos:station:TCOON:057:1,2017-11-01T09:54:00Z,28.4460,-96.3961,0.0,3.6,248.0,5.2,'11111222,11111222,11111222' 
TCOON,ioos:station:TCOON:057:1,2017-11-01T10:00:00Z,28.4460,-96.3961,0.0,3.7,250.0,4.1,'11111222,11111222,11111222' 
TCOON,ioos:station:TCOON:057:1,2017-11-01T10:06:00Z,28.4460,-96.3961,0.0,4.3,245.0,5.3,'11111222,11111222,11111222' 
TCOON,ioos:station:TCOON:057:1,2017-11-01T10:12:00Z,28.4460,-96.3961,0.0,3.8,243.0,4.8,'11111222,11111222,11111222' 
TCOON,ioos:station:TCOON:057:1,2017-11-01T10:18:00Z,28.4460,-96.3961,0.0,3.8,243.0,4.8,'1111122,1111122,1111122' 
TCOON,ioos:station:TCOON:057:1,2017-11-01T10:24:00Z,28.4460,-96.3961,0.0,3.8,243.0,4.6,'11111222,11111222,11111222' 
TCOON,ioos:station:TCOON:057:1,2017-11-01T10:30:00Z,28.4460,-96.3961,0.0,2.9,243.0,4.6,'11111222,11111222,11111222' 
TCOON,ioos:station:TCOON:057:1,2017-11-01T10:36:00Z,28.4460,-96.3961,0.0,2.9,249.0,4.2,'11111222,11111222,11111222' 
TCOON,ioos:station:TCOON:057:1,2017-11-01T10:42:00Z,28.4460,-96.3961,0.0,3.5,247.0,4.1,'11111222,11111222,11111222' 
TCOON,ioos:station:TCOON:057:1,2017-11-01T10:48:00Z,28.4460,-96.3961,0.0,3.1,246.0,4.1,'11111222,11111222,11111222' 
TCOON,ioos:station:TCOON:057:1,2017-11-01T10:54:00Z,28.4460,-96.3961,0.0,3.1,242.0,4.4,'11111222,11111222,11111222' 
TCOON,ioos:station:TCOON:057:1,2017-11-01T11:00:00Z,28.4460,-96.3961,0.0,2.7,234.0,3.6,'11111222,11111222,11111222' 
TCOON,ioos:station:TCOON:057:1,2017-11-01T11:06:00Z,28.4460,-96.3961,0.0,2.8,248.0,3.5,'11111222,11111222,11111222' 
TCOON,ioos:station:TCOON:057:1,2017-11-01T11:12:00Z,28.4460,-96.3961,0.0,3.3,256.0,3.9,'11111222,11111222,11111222' 
TCOON,ioos:station:TCOON:057:1,2017-11-01T11:18:00Z,28.4460,-96.3961,0.0,3.3,256.0,3.9,'1111122,1111122,1111122' 
TCOON,ioos:station:TCOON:057:1,2017-11-01T11:24:00Z,28.4460,-96.3961,0.0,2.9,259.0,3.5,'11111222,11111222,11111222' 
TCOON,ioos:station:TCOON:057:1,2017-11-01T11:30:00Z,28.4460,-96.3961,0.0,2.8,265.0,3.4,'11111222,11111222,11111222' 
TCOON,ioos:station:TCOON:057:1,2017-11-01T11:36:00Z,28.4460,-96.3961,0.0,2.7,265.0,3.5,'11111222,11111222,11111222' 
TCOON,ioos:station:TCOON:057:1,2017-11-01T11:42:00Z,28.4460,-96.3961,0.0,2.9,260.0,4.2,'11111222,11111222,11111222' 
TCOON,ioos:station:TCOON:057:1,2017-11-01T11:48:00Z,28.4460,-96.3961,0.0,3.5,265.0,4.5,'11111222,11111222,11111222' 
TCOON,ioos:station:TCOON:057:1,2017-11-01T11:54:00Z,28.4460,-96.3961,0.0,3.8,274.0,5.0,'11111222,11111222,11111222' 
TCOON,ioos:station:TCOON:057:1,2017-11-01T12:00:00Z,28.4460,-96.3961,0.0,3.4,269.0,4.9,'11111222,11111222,11111222' 
TCOON,ioos:station:TCOON:057:1,2017-11-01T12:06:00Z,28.4460,-96.3961,0.0,3.5,281.0,4.4,'11111222,11111222,11111222' 
TCOON,ioos:station:TCOON:057:1,2017-11-01T12:12:00Z,28.4460,-96.3961,0.0,3.5,286.0,4.2,'11111222,11111222,11111222' 
TCOON,ioos:station:TCOON:057:1,2017-11-01T12:18:00Z,28.4460,-96.3961,0.0,3.5,286.0,4.2,'1111122,1111122,1111122' 
TCOON,ioos:station:TCOON:057:1,2017-11-01T12:24:00Z,28.4460,-96.3961,0.0,3.5,291.0,4.9,'11111222,11111222,11111222' 
TCOON,ioos:station:TCOON:057:1,2017-11-01T12:30:00Z,28.4460,-96.3961,0.0,3.3,288.0,4.0,'11111222,11111222,11111222' 
TCOON,ioos:station:TCOON:057:1,2017-11-01T12:36:00Z,28.4460,-96.3961,0.0,3.4,290.0,3.9,'11111222,11111222,11111222' 
TCOON,ioos:station:TCOON:057:1,2017-11-01T12:42:00Z,28.4460,-96.3961,0.0,3.6,290.0,4.5,'11111222,11111222,11111222' 
TCOON,ioos:station:TCOON:057:1,2017-11-01T12:48:00Z,28.4460,-96.3961,0.0,3.3,289.0,4.7,'11111222,11111222,11111222' 
TCOON,ioos:station:TCOON:057:1,2017-11-01T12:54:00Z,28.4460,-96.3961,0.0,2.5,286.0,3.9,'11111222,11111222,11111222' 
TCOON,ioos:station:TCOON:057:1,2017-11-01T13:00:00Z,28.4460,-96.3961,0.0,2.8,289.0,3.6,'11111222,11111222,11111222' 
TCOON,ioos:station:TCOON:057:1,2017-11-01T13:06:00Z,28.4460,-96.3961,0.0,3.3,279.0,4.0,'11111222,11111222,11111222' 
TCOON,ioos:station:TCOON:057:1,2017-11-01T13:12:00Z,28.4460,-96.3961,0.0,2.5,266.0,3.5,'11111222,11111222,11111222' 
TCOON,ioos:station:TCOON:057:1,2017-11-01T13:18:00Z,28.4460,-96.3961,0.0,2.5,266.0,3.5,'1111122,1111122,1111122' 
TCOON,ioos:station:TCOON:057:1,2017-11-01T13:24:00Z,28.4460,-96.3961,0.0,2.8,263.0,3.9,'11111222,11111222,11111222' 
TCOON,ioos:station:TCOON:057:1,2017-11-01T13:30:00Z,28.4460,-96.3961,0.0,2.2,259.0,3.6,'11111222,11111222,11111222' 
TCOON,ioos:station:TCOON:057:1,2017-11-01T13:36:00Z,28.4460,-96.3961,0.0,2.3,258.0,3.1,'11111222,11111222,11111222' 
TCOON,ioos:station:TCOON:057:1,2017-11-01T13:42:00Z,28.4460,-96.3961,0.0,2.5,257.0,3.2,'11111222,11111222,11111222' 
TCOON,ioos:station:TCOON:057:1,2017-11-01T13:48:00Z,28.4460,-96.3961,0.0,2.6,242.0,3.5,'11111222,11111222,11111222' 
TCOON,ioos:station:TCOON:057:1,2017-11-01T13:54:00Z,28.4460,-96.3961,0.0,2.9,255.0,3.3,'11111222,11111222,11111222' 
TCOON,ioos:station:TCOON:057:1,2017-11-01T14:00:00Z,28.4460,-96.3961,0.0,3.0,257.0,3.8,'11111222,11111222,11111222' 
TCOON,ioos:station:TCOON:057:1,2017-11-01T14:06:00Z,28.4460,-96.3961,0.0,2.5,251.0,3.2,'11111222,11111222,11111222' 
TCOON,ioos:station:TCOON:057:1,2017-11-01T14:12:00Z,28.4460,-96.3961,0.0,2.9,244.0,3.6,'11111222,11111222,11111222' 
TCOON,ioos:station:TCOON:057:1,2017-11-01T14:18:00Z,28.4460,-96.3961,0.0,2.9,244.0,3.6,'1111122,1111122,1111122' 
TCOON,ioos:station:TCOON:057:1,2017-11-01T14:24:00Z,28.4460,-96.3961,0.0,3.1,242.0,3.6,'11111222,11111222,11111222' 
TCOON,ioos:station:TCOON:057:1,2017-11-01T14:30:00Z,28.4460,-96.3961,0.0,4.5,234.0,5.4,'11111222,11111222,11111222' 
TCOON,ioos:station:TCOON:057:1,2017-11-01T14:36:00Z,28.4460,-96.3961,0.0,4.1,236.0,5.1,'11111222,11111222,11111222' 
TCOON,ioos:station:TCOON:057:1,2017-11-01T14:42:00Z,28.4460,-96.3961,0.0,4.4,239.0,5.9,'11111222,11111222,11111222' 
TCOON,ioos:station:TCOON:057:1,2017-11-01T14:48:00Z,28.4460,-96.3961,0.0,4.0,248.0,5.2,'11111222,11111222,11111222' 
TCOON,ioos:station:TCOON:057:1,2017-11-01T14:54:00Z,28.4460,-96.3961,0.0,4.0,249.0,4.6,'11111222,11111222,11111222' 
TCOON,ioos:station:TCOON:057:1,2017-11-01T15:00:00Z,28.4460,-96.3961,0.0,3.6,256.0,4.7,'11111222,11111222,11111222' 
TCOON,ioos:station:TCOON:057:1,2017-11-01T15:06:00Z,28.4460,-96.3961,0.0,3.9,272.0,5.5,'11111222,11111222,11111222' 
TCOON,ioos:station:TCOON:057:1,2017-11-01T15:12:00Z,28.4460,-96.3961,0.0,4.7,253.0,5.9,'11111222,11111222,11111222' 
TCOON,ioos:station:TCOON:057:1,2017-11-01T15:18:00Z,28.4460,-96.3961,0.0,4.2,247.0,5.5,'11111222,11111222,11111222' 
TCOON,ioos:station:TCOON:057:1,2017-11-01T15:24:00Z,28.4460,-96.3961,0.0,4.2,247.0,5.5,'1111122,1111122,1111122' 
TCOON,ioos:station:TCOON:057:1,2017-11-01T15:30:00Z,28.4460,-96.3961,0.0,3.4,243.0,4.7,'11111222,11111222,11111222' 
TCOON,ioos:station:TCOON:057:1,2017-11-01T15:36:00Z,28.4460,-96.3961,0.0,3.0,242.0,4.5,'11111222,11111222,11111222' 
TCOON,ioos:station:TCOON:057:1,2017-11-01T15:42:00Z,28.4460,-96.3961,0.0,2.4,240.0,3.2,'11111222,11111222,11111222' 
TCOON,ioos:station:TCOON:057:1,2017-11-01T15:48:00Z,28.4460,-96.3961,0.0,2.6,259.0,3.1,'11111222,11111222,11111222' 
TCOON,ioos:station:TCOON:057:1,2017-11-01T15:54:00Z,28.4460,-96.3961,0.0,1.7,280.0,3.2,'11111222,11111222,11111222' 
TCOON,ioos:station:TCOON:057:1,2017-11-01T16:00:00Z,28.4460,-96.3961,0.0,2.8,296.0,3.3,'11111222,11111222,11111222' 
TCOON,ioos:station:TCOON:057:1,2017-11-01T16:06:00Z,28.4460,-96.3961,0.0,3.9,340.0,4.4,'11111222,11111222,11111222' 
TCOON,ioos:station:TCOON:057:1,2017-11-01T16:12:00Z,28.4460,-96.3961,0.0,3.9,338.0,4.5,'11111222,11111222,11111222' 
TCOON,ioos:station:TCOON:057:1,2017-11-01T16:18:00Z,28.4460,-96.3961,0.0,3.9,338.0,4.5,'1111122,1111122,1111122' 
TCOON,ioos:station:TCOON:057:1,2017-11-01T16:24:00Z,28.4460,-96.3961,0.0,3.6,343.0,4.2,'11111222,11111222,11111222' 
TCOON,ioos:station:TCOON:057:1,2017-11-01T16:30:00Z,28.4460,-96.3961,0.0,3.7,346.0,4.0,'11111222,11111222,11111222' 
TCOON,ioos:station:TCOON:057:1,2017-11-01T16:36:00Z,28.4460,-96.3961,0.0,3.0,354.0,3.8,'11111222,11111222,11111222' 
TCOON,ioos:station:TCOON:057:1,2017-11-01T16:42:00Z,28.4460,-96.3961,0.0,3.0,349.0,3.3,'11111222,11111222,11111222' 
TCOON,ioos:station:TCOON:057:1,2017-11-01T16:48:00Z,28.4460,-96.3961,0.0,2.4,352.0,3.0,'11111222,11111222,11111222' 
TCOON,ioos:station:TCOON:057:1,2017-11-01T16:54:00Z,28.4460,-96.3961,0.0,2.3,351.0,2.7,'11111222,11111222,11111222' 
TCOON,ioos:station:TCOON:057:1,2017-11-01T17:00:00Z,28.4460,-96.3961,0.0,2.0,343.0,2.2,'11111222,11111222,11111222' 
TCOON,ioos:station:TCOON:057:1,2017-11-01T17:06:00Z,28.4460,-96.3961,0.0,2.8,338.0,3.1,'11111222,11111222,11111222' 
TCOON,ioos:station:TCOON:057:1,2017-11-01T17:12:00Z,28.4460,-96.3961,0.0,2.5,350.0,3.0,'11111222,11111222,11111222' 
TCOON,ioos:station:TCOON:057:1,2017-11-01T17:18:00Z,28.4460,-96.3961,0.0,2.5,350.0,3.0,'1111122,1111122,1111122' 
TCOON,ioos:station:TCOON:057:1,2017-11-01T17:24:00Z,28.4460,-96.3961,0.0,1.6,4.0,2.2,'11111222,11111222,11111222' 
TCOON,ioos:station:TCOON:057:1,2017-11-01T17:30:00Z,28.4460,-96.3961,0.0,1.5,20.0,1.8,'11111222,11111222,11111222' 
TCOON,ioos:station:TCOON:057:1,2017-11-01T17:36:00Z,28.4460,-96.3961,0.0,1.5,24.0,1.7,'11111222,11111222,11111222' 
TCOON,ioos:station:TCOON:057:1,2017-11-01T17:42:00Z,28.4460,-96.3961,0.0,1.4,47.0,1.5,'11111222,11111222,11111222' 
TCOON,ioos:station:TCOON:057:1,2017-11-01T17:48:00Z,28.4460,-96.3961,0.0,1.3,68.0,1.5,'11111222,11111222,11111222' 
TCOON,ioos:station:TCOON:057:1,2017-11-01T17:54:00Z,28.4460,-96.3961,0.0,1.5,55.0,1.7,'11111222,11111222,11111222' 
TCOON,ioos:station:TCOON:057:1,2017-11-01T18:00:00Z,28.4460,-96.3961,0.0,1.4,42.0,1.7,'11111222,11111222,11111222' 
TCOON,ioos:station:TCOON:057:1,2017-11-01T18:06:00Z,28.4460,-96.3961,0.0,2.0,53.0,2.1,'11111222,11111222,11111222' 
TCOON,ioos:station:TCOON:057:1,2017-11-01T18:12:00Z,28.4460,-96.3961,0.0,2.0,59.0,2.3,'11111222,11111222,11111222' 
TCOON,ioos:station:TCOON:057:1,2017-11-01T18:18:00Z,28.4460,-96.3961,0.0,2.0,59.0,2.3,'1111122,1111122,1111122' 
TCOON,ioos:station:TCOON:057:1,2017-11-01T18:24:00Z,28.4460,-96.3961,0.0,1.5,87.0,1.9,'11111222,11111222,11111222' 
TCOON,ioos:station:TCOON:057:1,2017-11-01T18:30:00Z,28.4460,-96.3961,0.0,1.5,79.0,1.9,'11111222,11111222,11111222' 
TCOON,ioos:station:TCOON:057:1,2017-11-01T18:36:00Z,28.4460,-96.3961,0.0,1.0,63.0,1.5,'11111222,11111222,11111222' 
TCOON,ioos:station:TCOON:057:1,2017-11-01T18:42:00Z,28.4460,-96.3961,0.0,1.2,36.0,1.7,'11111222,11111222,11111222' 
TCOON,ioos:station:TCOON:057:1,2017-11-01T18:48:00Z,28.4460,-96.3961,0.0,2.3,32.0,2.5,'11111222,11111222,11111222' 
TCOON,ioos:station:TCOON:057:1,2017-11-01T18:54:00Z,28.4460,-96.3961,0.0,2.1,26.0,2.7,'11111222,11111222,11111222' 
TCOON,ioos:station:TCOON:057:1,2017-11-01T19:00:00Z,28.4460,-96.3961,0.0,0.2,77.0,1.9,'11111222,11111222,11111222' 
TCOON,ioos:station:TCOON:057:1,2017-11-01T19:06:00Z,28.4460,-96.3961,0.0,0.6,186.0,1.2,'11111222,11111222,11111222' 
TCOON,ioos:station:TCOON:057:1,2017-11-01T19:12:00Z,28.4460,-96.3961,0.0,3.9,230.0,5.6,'11111222,11111222,11111222' 
TCOON,ioos:station:TCOON:057:1,2017-11-01T19:18:00Z,28.4460,-96.3961,0.0,3.9,230.0,5.6,'1111122,1111122,1111122' 
TCOON,ioos:station:TCOON:057:1,2017-11-01T19:24:00Z,28.4460,-96.3961,0.0,3.6,221.0,4.7,'11111222,11111222,11111222' 
TCOON,ioos:station:TCOON:057:1,2017-11-01T19:30:00Z,28.4460,-96.3961,0.0,4.2,222.0,5.1,'11111222,11111222,11111222' 
TCOON,ioos:station:TCOON:057:1,2017-11-01T19:36:00Z,28.4460,-96.3961,0.0,4.9,219.0,6.1,'11111222,11111222,11111222' 
TCOON,ioos:station:TCOON:057:1,2017-11-01T19:42:00Z,28.4460,-96.3961,0.0,5.1,215.0,6.0,'11111222,11111222,11111222' 
TCOON,ioos:station:TCOON:057:1,2017-11-01T19:48:00Z,28.4460,-96.3961,0.0,5.1,215.0,6.3,'11111222,11111222,11111222' 
TCOON,ioos:station:TCOON:057:1,2017-11-01T19:54:00Z,28.4460,-96.3961,0.0,5.5,222.0,6.2,'11111222,11111222,11111222' 
TCOON,ioos:station:TCOON:057:1,2017-11-01T20:00:00Z,28.4460,-96.3961,0.0,5.0,221.0,6.2,'11111222,11111222,11111222' 
TCOON,ioos:station:TCOON:057:1,2017-11-01T20:06:00Z,28.4460,-96.3961,0.0,5.3,221.0,6.1,'11111222,11111222,11111222' 
TCOON,ioos:station:TCOON:057:1,2017-11-01T20:12:00Z,28.4460,-96.3961,0.0,5.0,227.0,5.8,'11111222,11111222,11111222' 
TCOON,ioos:station:TCOON:057:1,2017-11-01T20:18:00Z,28.4460,-96.3961,0.0,5.0,227.0,5.8,'1111122,1111122,1111122' 